Location: Unspecified
(49.2170°N, 0.0000°E)
Time: 14:53:51
(UTC+00:00)

Tiros 1 despin weight - Pass Details

Date: 25 January 2021
Orbit: 593 x 642 km, 48.2° (Epoch: 07 March)

Event Time Altitude Azimuth Distance (km) Brightness Sun altitude
Rises 15:28:35 0° 251° (WSW) 2,885 ? 9.3°
Reaches altitude 10° 15:30:55 10° 249° (WSW) 1,972 ? 9.0°
Maximum altitude 15:35:24 67° 167° (SSE) 659 ? 8.5°
Drops below altitude 10° 15:39:50 10° 85° (E) 1,946 ? 7.9°
Sets 15:42:07 0° 83° (E) 2,844 ? 7.6°
